Epoch,demod_status_bits,ebno,lock_status,signal_level,viterbi_ber
1664086876,C;S;V;F,11.7,0x00c000,-37.6,5.29e-6
1664086877,C;S;V;F,12.4,0x00c000,-38.0,1.36e-6
1664086878,C;S;V;F,12.0,0x00c000,-38.4,4.23e-6
1664086879,C;S;V;F,11.4,0x00c000,-38.4,9.99e-6
1664086880,C;S;V;F,11.9,0x00c000,-38.6,9.22e-6
1664086881,C;S;V;F,11.5,0x00c000,-38.9,8.92e-6
1664086882,C;S;V;F,12.3,0x00c000,-38.0,8.01e-6
1664086883,C;S;V;F,12.2,0x00c000,-38.2,
1664086884,,12.3,0x00c000,-38.1,2.87e-6
1664086885,C;S;V;F,12.9,0x00c000,-37.8,2.72e-6
1664086886,C;S;V;F,12.7,0x00c000,-38.0,1.36e-6
1664086887,C;S;V;F,13.1,0x00c000,-37.2,7.57e-7
1664086888,C;S;V;F,12.8,0x00c000,-37.8,6.06e-7
1664086889,C;S;V;F,,0x00c000,-37.9,3.03e-7
1664086890,C;S;V;F,12.5,0x00c000,-37.9,4.54e-7
1664086891,C;S;V;F,12.6,0x00c000,-38.0,6.06e-7
1664086892,C;S;V;F,12.5,0x00c000,,1.05e-6
1664086893,C;S;V;F,12.7,0x00c000,-37.9,1.05e-6
1664086894,C;S;V;F,12.7,0x00c000,-37.9,6.06e-7
1664086895,C;S;V;F,12.9,0x00c000,-37.7,4.54e-7
1664086896,C;S;V;F,12.8,0x00c000,-37.6,3.03e-7
1664086897,C;S;V;F,13.0,0x00c000,-37.6,3.03e-7
1664086898,C;S;V;F,12.8,0x00c000,-37.7,1.51e-7
1664086899,C;S;V;F,12.6,0x00c000,-37.9,1.51e-7
1664086900,C;S;V;F,12.7,0x00c000,-37.4,4.54e-7
1664086901,C;S;V;F,13.1,0x00c000,-37.2,3.03e-7
1664086902,C;S;V;F,13.2,0x00c000,-37.1,
1664086903,C;S;V;F,13.2,0x00c000,-37.4,0.00e-0
1664086904,,13.3,0x00c000,-37.1,0.00e-0
1664086905,C;S;V;F,12.6,0x00c000,-37.6,0.00e-0
1664086906,C;S;V;F,13.1,0x00c000,-37.4,1.51e-7
1664086907,C;S;V;F,13.5,0x00c000,-37.2,1.51e-7
1664086908,C;S;V;F,,0x00c000,-37.0,0.00e-0
1664086909,C;S;V;F,13.4,0x00c000,-37.1,0.00e-0
1664086910,C;S;V;F,13.7,0x00c000,,0.00e-0
1664086911,C;S;V;F,13.7,0x00c000,-36.8,0.00e-0
1664086912,C;S;V;F,13.4,0x00c000,-37.2,0.00e-0
1664086913,C;S;V;F,13.9,0x00c000,-36.8,0.00e-0
1664086914,C;S;V;F,13.8,0x00c000,-37.0,0.00e-0
1664086915,C;S;V;F,13.6,0x00c000,-37.0,0.00e-0
1664086916,C;S;V;F,13.6,0x00c000,-37.2,0.00e-0
1664086917,C;S;V;F,13.8,0x00c000,-37.1,0.00e-0
1664086918,C;S;V;F,13.7,0x00c000,-37.1,0.00e-0
1664086919,C;S;V;F,13.9,0x00c000,-36.9,0.00e-0
1664086920,C;S;V;F,14.4,0x00c000,-36.5,0.00e-0
1664086921,C;S;V;F,14.2,0x00c000,-36.7,
1664086922,,14.4,0x00c000,-36.6,0.00e-0
1664086923,C;S;V;F,14.1,0x00c000,-36.6,0.00e-0
1664086924,C;S;V;F,14.2,0x00c000,-36.7,0.00e-0
1664086925,C;S;V;F,,0x00c000,-36.5,0.00e-0
1664086926,C;S;V;F,14.4,0x00c000,-37.0,0.00e-0
1664086927,C;S;V;F,13.8,0x00c000,,0.00e-0
1664086928,C;S;V;F,13.7,0x00c000,-37.2,0.00e-0
1664086929,C;S;V;F,13.8,0x00c000,-37.1,0.00e-0
1664086930,C;S;V;F,14.0,0x00c000,-37.0,0.00e-0
1664086931,C;S;V;F,13.9,0x00c000,-36.8,0.00e-0
1664086932,C;S;V;F,14.1,0x00c000,-36.9,0.00e-0
1664086933,C;S;V;F,14.1,0x00c000,-37.0,0.00e-0
1664086934,C;S;V;F,14.1,0x00c000,-36.6,0.00e-0
1664086935,C;S;V;F,14.3,0x00c000,-36.4,0.00e-0
1664086936,C;S;V;F,14.3,0x00c000,-36.5,
1664086937,,,,,0.00e-0
1664086938,,14.4,0x00c000,-36.6,
1664086939,C;S;V;F,,0x00c000,-36.7,0.00e-0
1664086940,C;S;V;F,14.6,0x00c000,,0.00e-0
1664086941,C;S;V;F,14.1,0x00c000,-37.1,0.00e-0
1664086942,C;S;V;F,14.1,0x00c000,-36.9,0.00e-0
1664086943,C;S;V;F,14.4,0x00c000,-36.6,0.00e-0
1664086944,C;S;V;F,14.4,0x00c000,-36.3,0.00e-0
1664086945,C;S;V;F,14.4,0x00c000,-36.4,0.00e-0
1664086946,C;S;V;F,14.6,0x00c000,-36.4,0.00e-0
1664086947,C;S;V;F,14.3,0x00c000,-36.9,0.00e-0
1664086948,C;S;V;F,14.3,0x00c000,-36.9,0.00e-0
1664086949,C;S;V;F,14.3,0x00c000,-36.7,0.00e-0
1664086950,C;S;V;F,14.1,0x00c000,-36.9,0.00e-0
1664086951,C;S;V;F,14.1,0x00c000,-36.9,0.00e-0
1664086952,,14.3,0x00c000,-36.7,
1664086953,C;S;V;F,,0x00c000,-36.7,0.00e-0
1664086954,C;S;V;F,14.4,0x00c000,-36.8,0.00e-0
1664086955,C;S;V;F,14.5,0x00c000,,0.00e-0
1664086956,C;S;V;F,14.2,0x00c000,-37.1,0.00e-0
1664086957,C;S;V;F,14.1,0x00c000,-36.8,0.00e-0
1664086958,C;S;V;F,14.2,0x00c000,-36.7,0.00e-0
1664086959,C;S;V;F,14.2,0x00c000,-36.7,0.00e-0
1664086960,C;S;V;F,14.2,0x00c000,-36.8,0.00e-0
1664086961,C;S;V;F,14.2,0x00c000,-36.8,0.00e-0
1664086962,C;S;V;F,14.3,0x00c000,-36.8,0.00e-0
1664086963,C;S;V;F,13.9,0x00c000,-37.3,
1664086964,C;S;V;F,14.0,0x00c000,-37.4,0.00e-0
1664086965,,14.4,0x00c000,-36.8,0.00e-0
1664086966,C;S;V;F,14.6,0x00c000,-36.5,0.00e-0
1664086967,C;S;V;F,14.3,0x00c000,-36.8,0.00e-0
1664086968,C;S;V;F,,0x00c000,-36.8,0.00e-0
1664086969,C;S;V;F,14.3,0x00c000,-37.2,0.00e-0
1664086970,C;S;V;F,14.1,0x00c000,,0.00e-0
1664086971,C;S;V;F,14.2,0x00c000,-37.0,0.00e-0
1664086972,C;S;V;F,13.9,0x00c000,-37.4,0.00e-0
1664086973,C;S;V;F,13.9,0x00c000,-37.2,0.00e-0
1664086974,C;S;V;F,13.8,0x00c000,-37.2,0.00e-0
1664086975,C;S;V;F,13.8,0x00c000,-37.3,0.00e-0
1664086976,C;S;V;F,13.9,0x00c000,-37.1,0.00e-0
1664086977,C;S;V;F,14.0,0x00c000,-37.3,0.00e-0
1664086978,C;S;V;F,13.7,0x00c000,-37.5,0.00e-0
1664086979,C;S;V;F,13.9,0x00c000,-37.3,0.00e-0
1664086980,C;S;V;F,14.0,0x00c000,-37.3,0.00e-0
1664086981,C;S;V;F,14.0,0x00c000,-37.6,0.00e-0
1664086982,C;S;V;F,13.9,0x00c000,-37.2,0.00e-0
1664086983,C;S;V;F,14.3,0x00c000,-37.2,
1664086984,,14.1,0x00c000,-37.3,0.00e-0
1664086985,C;S;V;F,13.9,0x00c000,-37.6,0.00e-0
1664086986,C;S;V;F,14.0,0x00c000,-37.2,0.00e-0
1664086987,C;S;V;F,,0x00c000,-37.5,0.00e-0
1664086988,C;S;V;F,14.0,0x00c000,,0.00e-0
1664086989,C;S;V;F,13.7,0x00c000,-37.5,0.00e-0
1664086990,C;S;V;F,13.7,0x00c000,-37.4,0.00e-0
1664086991,C;S;V;F,13.8,0x00c000,-37.5,0.00e-0
1664086992,C;S;V;F,13.8,0x00c000,-37.4,0.00e-0
1664086993,C;S;V;F,13.9,0x00c000,-37.5,0.00e-0
1664086994,C;S;V;F,13.6,0x00c000,-37.6,0.00e-0
1664086995,C;S;V;F,13.7,0x00c000,-37.9,0.00e-0
1664086996,C;S;V;F,13.5,0x00c000,-37.6,
1664086997,,13.8,0x00c000,-37.8,0.00e-0
1664086998,C;S;V;F,13.6,0x00c000,-37.7,0.00e-0
1664086999,C;S;V;F,,0x00c000,,0.00e-0
1664087001,C;S;V;F,13.6,0x00c000,-37.7,0.00e-0
1664087002,,13.8,0x00c000,-37.3,
1664087003,C;S;V;F,14.2,0x00c000,-37.4,0.00e-0
1664087004,C;S;V;F,13.9,0x00c000,-37.7,0.00e-0
1664087005,C;S;V;F,14.1,0x00c000,-37.4,0.00e-0
1664087006,C;S;V;F,,0x00c000,-37.5,0.00e-0
1664087007,C;S;V;F,13.9,0x00c000,,0.00e-0
1664087008,C;S;V;F,14.0,0x00c000,-37.2,0.00e-0
1664087009,C;S;V;F,13.8,0x00c000,-37.4,0.00e-0
1664087010,C;S;V;F,13.8,0x00c000,-37.5,0.00e-0
1664087011,C;S;V;F,13.7,0x00c000,-37.6,0.00e-0
1664087012,C;S;V;F,13.7,0x00c000,-37.7,0.00e-0
1664087013,C;S;V;F,13.6,0x00c000,-37.7,0.00e-0
1664087014,C;S;V;F,13.7,0x00c000,-37.9,0.00e-0
1664087015,C;S;V;F,13.4,0x00c000,-38.4,0.00e-0
1664087016,C;S;V;F,12.9,0x00c000,-38.4,
1664087017,,13.3,0x00c000,-38.0,1.51e-7
1664087018,C;S;V;F,13.4,0x00c000,-37.8,0.00e-0
1664087019,C;S;V;F,13.8,0x00c000,-37.6,0.00e-0
1664087020,C;S;V;F,,0x00c000,,0.00e-0
1664087021,C;S;V;F,13.8,0x00c000,-37.5,0.00e-0
1664087022,C;S;V;F,13.7,0x00c000,-37.5,0.00e-0
1664087023,C;S;V;F,13.8,0x00c000,-37.7,0.00e-0
1664087024,C;S;V;F,13.2,0x00c000,-38.1,0.00e-0
1664087025,C;S;V;F,13.4,0x00c000,-38.0,0.00e-0
1664087026,C;S;V;F,13.7,0x00c000,-37.8,0.00e-0
1664087027,C;S;V;F,13.7,0x00c000,-37.6,0.00e-0
1664087028,C;S;V;F,13.8,0x00c000,-37.7,
1664087029,,13.5,0x00c000,-37.9,0.00e-0
1664087030,C;S;V;F,13.8,0x00c000,-37.7,0.00e-0
1664087031,C;S;V;F,13.6,0x00c000,-37.7,0.00e-0
1664087032,C;S;V;F,,0x00c000,-37.9,0.00e-0
1664087033,C;S;V;F,13.6,0x00c000,,0.00e-0
1664087034,C;S;V;F,13.3,0x00c000,-38.0,0.00e-0
1664087035,C;S;V;F,13.2,0x00c000,-38.1,0.00e-0
1664087036,C;S;V;F,13.3,0x00c000,-38.0,0.00e-0
1664087037,C;S;V;F,13.4,0x00c000,-38.0,0.00e-0
1664087038,C;S;V;F,13.4,0x00c000,-37.6,0.00e-0
1664087039,C;S;V;F,13.9,0x00c000,-37.5,0.00e-0
1664087040,C;S;V;F,13.9,0x00c000,-37.2,0.00e-0
1664087041,C;S;V;F,13.9,0x00c000,-37.2,0.00e-0
1664087042,C;S;V;F,14.2,0x00c000,-37.2,0.00e-0
1664087043,C;S;V;F,14.4,0x00c000,-36.8,
1664087044,,14.4,0x00c000,-36.8,0.00e-0
1664087045,C;S;V;F,14.4,0x00c000,-36.9,0.00e-0
1664087046,C;S;V;F,14.5,0x00c000,-36.8,0.00e-0
1664087047,C;S;V;F,,0x00c000,-36.6,0.00e-0
1664087048,C;S;V;F,14.6,0x00c000,-36.8,0.00e-0
1664087049,C;S;V;F,14.6,0x00c000,,0.00e-0
1664087050,C;S;V;F,14.7,0x00c000,-36.8,0.00e-0
1664087051,C;S;V;F,14.3,0x00c000,-37.0,0.00e-0
1664087052,C;S;V;F,14.4,0x00c000,-36.8,0.00e-0
1664087053,C;S;V;F,14.6,0x00c000,-36.7,0.00e-0
1664087054,C;S;V;F,14.5,0x00c000,-36.8,0.00e-0
1664087055,C;S;V;F,14.4,0x00c000,-36.6,0.00e-0
1664087056,C;S;V;F,14.4,0x00c000,-36.4,0.00e-0
1664087057,C;S;V;F,15.3,0x00c000,-36.0,
1664087058,,14.9,0x00c000,-36.0,0.00e-0
1664087059,C;S;V;F,14.9,0x00c000,-36.2,0.00e-0
1664087060,C;S;V;F,15.2,0x00c000,-36.2,0.00e-0
1664087061,C;S;V;F,15.0,0x00c000,-36.2,0.00e-0
1664087062,C;S;V;F,,0x00c000,,0.00e-0
1664087064,C;S;V;F,14.6,0x00c000,-36.7,0.00e-0
1664087065,C;S;V;F,14.4,0x00c000,-37.0,0.00e-0
1664087066,C;S;V;F,14.2,0x00c000,-37.2,0.00e-0
1664087067,C;S;V;F,13.9,0x00c000,-37.6,0.00e-0
1664087068,C;S;V;F,13.9,0x00c000,-37.3,0.00e-0
1664087069,C;S;V;F,14.1,0x00c000,-37.4,0.00e-0
1664087070,C;S;V;F,13.6,0x00c000,-37.8,0.00e-0
1664087071,C;S;V;F,13.8,0x00c000,-37.5,
1664087072,,13.8,0x00c000,-37.5,0.00e-0
1664087073,C;S;V;F,13.7,0x00c000,-37.4,0.00e-0
1664087074,C;S;V;F,13.7,0x00c000,-37.6,0.00e-0
1664087075,C;S;V;F,,0x00c000,-37.6,0.00e-0
1664087076,C;S;V;F,13.6,0x00c000,-37.6,0.00e-0
1664087077,C;S;V;F,13.7,0x00c000,,0.00e-0
1664087078,C;S;V;F,13.8,0x00c000,-37.5,0.00e-0
1664087079,C;S;V;F,13.8,0x00c000,-37.6,0.00e-0
1664087080,C;S;V;F,13.7,0x00c000,-37.7,0.00e-0
1664087081,C;S;V;F,13.8,0x00c000,-37.5,0.00e-0
1664087082,C;S;V;F,13.7,0x00c000,-37.7,0.00e-0
1664087083,C;S;V;F,13.6,0x00c000,-37.6,0.00e-0
1664087084,C;S;V;F,13.8,0x00c000,-37.6,0.00e-0
1664087085,C;S;V;F,14.0,0x00c000,-37.6,0.00e-0
1664087086,C;S;V;F,13.7,0x00c000,-37.7,
1664087087,,13.7,0x00c000,-37.4,0.00e-0
1664087088,C;S;V;F,13.7,0x00c000,-37.2,0.00e-0
1664087089,C;S;V;F,14.0,0x00c000,-37.3,0.00e-0
1664087090,C;S;V;F,,0x00c000,-37.2,0.00e-0
1664087091,C;S;V;F,14.1,0x00c000,-37.2,0.00e-0
1664087092,C;S;V;F,14.0,0x00c000,,0.00e-0
1664087093,C;S;V;F,14.3,0x00c000,-37.0,0.00e-0
1664087094,C;S;V;F,14.0,0x00c000,-37.2,0.00e-0
1664087095,C;S;V;F,14.3,0x00c000,-37.1,0.00e-0
1664087096,C;S;V;F,14.1,0x00c000,-37.2,0.00e-0
1664087097,C;S;V;F,14.2,0x00c000,-37.2,0.00e-0
1664087101,C;S;V;F,14.0,0x00c000,-37.1,0.00e-0
1664087102,C;S;V;F,14.2,0x00c000,-37.2,0.00e-0
1664087103,C;S;V;F,14.3,0x00c000,-36.8,0.00e-0
1664087104,C;S;V;F,14.3,0x00c000,-36.9,0.00e-0
1664087105,C;S;V;F,14.4,0x00c000,-36.7,
1664087106,,14.7,0x00c000,-36.7,0.00e-0
1664087107,C;S;V;F,14.2,0x00c000,-36.9,0.00e-0
1664087108,C;S;V;F,14.4,0x00c000,-36.9,0.00e-0
1664087109,C;S;V;F,14.1,0x00c000,-37.0,0.00e-0
1664087110,C;S;V;F,,0x00c000,-37.2,0.00e-0
1664087111,C;S;V;F,14.0,0x00c000,-37.2,0.00e-0
1664087112,C;S;V;F,14.1,0x00c000,,0.00e-0
1664087113,C;S;V;F,14.0,0x00c000,-37.2,0.00e-0
1664087114,C;S;V;F,13.9,0x00c000,-37.3,0.00e-0
1664087115,C;S;V;F,13.9,0x00c000,-37.5,0.00e-0
1664087116,C;S;V;F,13.6,0x00c000,-37.6,0.00e-0
1664087117,C;S;V;F,13.7,0x00c000,-37.8,0.00e-0
1664087118,C;S;V;F,13.7,0x00c000,-37.5,1.51e-7
1664087119,C;S;V;F,13.8,0x00c000,-37.4,0.00e-0
1664087120,C;S;V;F,13.7,0x00c000,-37.3,0.00e-0
1664087121,C;S;V;F,13.7,0x00c000,-37.3,
1664087122,C;S;V;F,13.4,0x00c000,-37.3,0.00e-0
1664087123,,13.5,0x00c000,-37.7,0.00e-0
1664087124,C;S;V;F,13.1,0x00c000,-37.8,0.00e-0
1664087125,C;S;V;F,,0x00c000,,0.00e-0
1664087126,,,0x00c000,-38.0,
1664087127,C;S;V;F,13.0,0x00c000,,1.51e-7
1664087128,C;S;V;F,12.8,0x00c000,-38.4,3.03e-7
1664087129,C;S;V;F,12.3,0x00c000,-38.7,1.51e-6
1664087130,C;S;V;F,12.3,0x00c000,-38.4,1.81e-6
1664087131,C;S;V;F,12.1,0x00c000,-38.7,2.11e-6
1664087132,C;S;V;F,12.0,0x00c000,-38.6,2.72e-6
1664087133,C;S;V;F,12.2,0x00c000,-38.4,2.11e-6
1664087134,C;S;V;F,12.5,0x00c000,-38.5,1.21e-6
1664087135,C;S;V;F,12.3,0x00c000,-38.4,1.51e-6
1664087136,C;S;V;F,12.0,0x00c000,-38.7,2.87e-6
1664087137,C;S;V;F,11.9,0x00c000,-38.7,
1664087138,C;S;V;F,11.8,0x00c000,-39.0,4.38e-6
1664087139,,11.7,0x00c000,-39.0,5.74e-6
1664087140,C;S;V;F,11.7,0x00c000,-38.9,7.71e-6
1664087141,C;S;V;F,11.6,0x00c000,-39.1,7.86e-6
1664087142,C;S;V;F,11.5,0x00c000,-39.1,8.62e-6
1664087143,C;S;V;F,,0x00c000,-38.8,1.03e-5
1664087144,C;S;V;F,11.9,0x00c000,,6.95e-6
1664087145,C;S;V;F,11.7,0x00c000,-38.7,4.99e-6
1664087146,C;S;V;F,11.9,0x00c000,-38.7,4.68e-6
1664087147,C;S;V;F,12.0,0x00c000,-38.7,4.84e-6
1664087148,C;S;V;F,12.2,0x00c000,-38.7,3.47e-6
1664087149,C;S;V;F,12.2,0x00c000,-38.4,3.17e-6
1664087150,C;S;V;F,12.3,0x00c000,-38.2,3.32e-6
1664087151,C;S;V;F,12.3,0x00c000,-38.4,2.26e-6
1664087152,C;S;V;F,12.5,0x00c000,-38.5,
1664087153,,12.7,0x00c000,-38.0,1.96e-6
1664087154,C;S;V;F,12.7,0x00c000,-38.0,1.36e-6
1664087155,C;S;V;F,12.8,0x00c000,-38.0,6.06e-7
1664087156,C;S;V;F,12.7,0x00c000,-37.9,6.06e-7
1664087157,C;S;V;F,,0x00c000,-38.0,6.06e-7
1664087158,C;S;V;F,12.8,0x00c000,,3.03e-7
1664087159,C;S;V;F,12.9,0x00c000,-38.0,0.00e-0
1664087160,C;S;V;F,13.0,0x00c000,-38.2,3.03e-7
1664087161,C;S;V;F,12.9,0x00c000,-37.9,6.06e-7
1664087162,C;S;V;F,13.1,0x00c000,-37.8,1.51e-7
1664087163,C;S;V;F,13.4,0x00c000,-37.6,0.00e-0
1664087164,C;S;V;F,13.5,0x00c000,-37.3,0.00e-0
1664087165,C;S;V;F,13.8,0x00c000,-37.2,0.00e-0
1664087166,C;S;V;F,13.9,0x00c000,-37.2,0.00e-0
1664087167,C;S;V;F,13.8,0x00c000,-37.4,
1664087168,,13.9,0x00c000,-37.2,0.00e-0
1664087169,C;S;V;F,13.9,0x00c000,-37.3,0.00e-0
1664087170,C;S;V;F,14.0,0x00c000,-37.1,0.00e-0
1664087171,C;S;V;F,,0x00c000,-37.0,0.00e-0
1664087172,C;S;V;F,14.2,0x00c000,,0.00e-0
1664087173,C;S;V;F,14.2,0x00c000,-36.9,0.00e-0
1664087174,C;S;V;F,14.6,0x00c000,-36.4,0.00e-0
1664087175,C;S;V;F,14.8,0x00c000,-36.4,0.00e-0
1664087176,C;S;V;F,15.0,0x00c000,-36.2,0.00e-0
1664087177,C;S;V;F,15.5,0x00c000,-36.0,0.00e-0
1664087178,C;S;V;F,15.4,0x00c000,-36.3,0.00e-0
1664087179,C;S;V;F,15.2,0x00c000,-36.0,0.00e-0
1664087180,C;S;V;F,15.4,0x00c000,-36.2,
1664087181,,15.2,0x00c000,-36.4,0.00e-0
1664087182,C;S;V;F,15.1,0x00c000,-36.3,0.00e-0
1664087183,C;S;V;F,15.3,0x00c000,-36.0,0.00e-0
1664087184,C;S;V;F,,0x00c000,-35.8,0.00e-0
1664087185,C;S;V;F,15.6,0x00c000,,0.00e-0
1664087186,C;S;V;F,15.6,0x00c000,-35.7,0.00e-0
1664087187,C;S;V;F,15.9,0x00c000,-35.5,0.00e-0
1664087189,,16.1,0x00c000,-35.2,
1664087190,C;S;V;F,16.2,0x00c000,-35.0,0.00e-0
1664087191,C;S;V;F,16.3,0x00c000,-34.9,0.00e-0
1664087192,C;S;V;F,16.3,0x00c000,-34.8,0.00e-0
1664087193,C;S;V;F,,0x00c000,-34.8,0.00e-0
1664087194,C;S;V;F,16.3,0x00c000,-34.8,0.00e-0
1664087195,C;S;V;F,16.4,0x00c000,,0.00e-0
1664087196,C;S;V;F,16.3,0x00c000,-34.9,0.00e-0
1664087197,C;S;V;F,16.2,0x00c000,-35.0,0.00e-0
1664087198,C;S;V;F,16.0,0x00c000,-35.2,0.00e-0
1664087199,C;S;V;F,16.2,0x00c000,-35.4,0.00e-0
1664087200,C;S;V;F,15.9,0x00c000,-35.6,0.00e-0
1664087201,C;S;V;F,15.9,0x00c000,-35.4,0.00e-0
1664087202,C;S;V;F,15.9,0x00c000,-35.2,0.00e-0
1664087203,C;S;V;F,16.4,0x00c000,-35.0,
1664087204,C;S;V;F,16.3,0x00c000,-34.8,0.00e-0
1664087205,,16.5,0x00c000,-34.8,0.00e-0
1664087206,C;S;V;F,16.7,0x00c000,-34.7,0.00e-0
1664087207,C;S;V;F,,0x00c000,-34.5,0.00e-0
1664087208,C;S;V;F,16.6,0x00c000,-34.7,0.00e-0
1664087209,C;S;V;F,16.6,0x00c000,,0.00e-0
1664087210,C;S;V;F,16.7,0x00c000,-34.7,0.00e-0
1664087211,C;S;V;F,16.4,0x00c000,-34.7,0.00e-0
1664087212,C;S;V;F,16.8,0x00c000,-34.5,0.00e-0
1664087213,C;S;V;F,16.5,0x00c000,-34.7,0.00e-0
1664087214,C;S;V;F,16.4,0x00c000,-34.7,0.00e-0
1664087215,C;S;V;F,16.3,0x00c000,-34.8,0.00e-0
1664087216,C;S;V;F,16.3,0x00c000,-34.8,0.00e-0
1664087217,C;S;V;F,16.2,0x00c000,-35.0,
1664087218,C;S;V;F,16.1,0x00c000,-35.0,0.00e-0
1664087219,,16.4,0x00c000,-34.7,0.00e-0
1664087220,C;S;V;F,16.7,0x00c000,-34.7,0.00e-0
1664087221,C;S;V;F,16.5,0x00c000,-34.7,0.00e-0
1664087222,C;S;V;F,,0x00c000,-34.5,0.00e-0
1664087223,C;S;V;F,16.5,0x00c000,-34.7,0.00e-0
1664087224,C;S;V;F,16.4,0x00c000,,0.00e-0
1664087225,C;S;V;F,16.7,0x00c000,-34.7,0.00e-0
1664087226,C;S;V;F,16.4,0x00c000,-34.8,0.00e-0
1664087227,C;S;V;F,16.4,0x00c000,-34.6,0.00e-0
1664087228,C;S;V;F,16.5,0x00c000,-34.5,0.00e-0
1664087229,C;S;V;F,16.5,0x00c000,-34.8,0.00e-0
1664087230,C;S;V;F,16.2,0x00c000,-34.8,0.00e-0
1664087231,C;S;V;F,16.4,0x00c000,-34.9,0.00e-0
1664087232,C;S;V;F,16.2,0x00c000,-34.9,
1664087233,,16.1,0x00c000,-35.2,0.00e-0
1664087234,C;S;V;F,15.7,0x00c000,-35.6,0.00e-0
1664087235,C;S;V;F,15.7,0x00c000,-35.6,0.00e-0
1664087236,C;S;V;F,,0x00c000,-35.6,0.00e-0
1664087237,C;S;V;F,15.9,0x00c000,,0.00e-0
1664087238,C;S;V;F,15.8,0x00c000,-35.5,0.00e-0
1664087239,C;S;V;F,15.7,0x00c000,-35.5,0.00e-0
1664087240,C;S;V;F,15.6,0x00c000,-35.6,0.00e-0
1664087241,C;S;V;F,15.5,0x00c000,-35.9,0.00e-0
1664087242,C;S;V;F,14.9,0x00c000,-36.2,0.00e-0
1664087243,C;S;V;F,15.3,0x00c000,-36.0,0.00e-0
1664087244,C;S;V;F,14.9,0x00c000,-36.0,0.00e-0
1664087245,C;S;V;F,15.3,0x00c000,-36.1,
1664087246,,15.1,0x00c000,-36.1,0.00e-0
1664087247,C;S;V;F,15.2,0x00c000,-36.0,0.00e-0
1664087248,C;S;V;F,15.3,0x00c000,-35.7,0.00e-0
1664087249,C;S;V;F,,0x00c000,-35.8,0.00e-0
1664087250,C;S;V;F,15.5,0x00c000,,0.00e-0
1664087252,C;S;V;F,15.2,0x00c000,-36.2,
1664087253,,14.9,0x00c000,-36.4,0.00e-0
1664087254,C;S;V;F,14.9,0x00c000,-36.9,0.00e-0
1664087255,C;S;V;F,,0x00c000,-37.2,0.00e-0
1664087256,C;S;V;F,14.0,0x00c000,-37.4,0.00e-0
1664087257,C;S;V;F,13.9,0x00c000,-37.9,0.00e-0
1664087258,C;S;V;F,13.3,0x00c000,,0.00e-0
1664087259,C;S;V;F,13.4,0x00c000,-37.9,0.00e-0
1664087260,C;S;V;F,13.5,0x00c000,-38.0,0.00e-0
1664087261,C;S;V;F,13.4,0x00c000,-37.9,0.00e-0
1664087262,C;S;V;F,13.2,0x00c000,-38.0,0.00e-0
1664087263,C;S;V;F,13.0,0x00c000,-38.1,0.00e-0
1664087264,C;S;V;F,13.0,0x00c000,-38.3,0.00e-0
1664087265,C;S;V;F,13.1,0x00c000,-38.4,1.51e-7
1664087266,C;S;V;F,13.1,0x00c000,-38.4,1.51e-7
1664087267,,13.3,0x00c000,-38.2,
1664087268,C;S;V;F,13.5,0x00c000,-37.9,0.00e-0
1664087269,C;S;V;F,13.5,0x00c000,-37.9,0.00e-0
1664087270,C;S;V;F,,0x00c000,-37.6,0.00e-0
1664087271,C;S;V;F,13.5,0x00c000,-37.4,0.00e-0
1664087272,C;S;V;F,13.8,0x00c000,-37.5,0.00e-0
1664087273,C;S;V;F,13.9,0x00c000,-37.4,0.00e-0
1664087274,C;S;V;F,13.8,0x00c000,,0.00e-0
1664087275,C;S;V;F,14.0,0x00c000,-37.4,0.00e-0
1664087276,C;S;V;F,13.9,0x00c000,-37.5,0.00e-0
1664087277,C;S;V;F,14.0,0x00c000,-37.5,0.00e-0
1664087278,C;S;V;F,13.8,0x00c000,-37.9,0.00e-0
1664087279,C;S;V;F,13.1,0x00c000,-38.3,0.00e-0
1664087280,C;S;V;F,12.9,0x00c000,-38.5,1.51e-7
1664087281,C;S;V;F,13.0,0x00c000,-38.6,3.03e-7
1664087282,C;S;V;F,12.9,0x00c000,-38.7,1.51e-7
1664087283,,12.7,0x00c000,-38.8,
1664087284,C;S;V;F,12.7,0x00c000,-38.5,4.54e-7
1664087285,C;S;V;F,13.1,0x00c000,-38.3,4.54e-7
1664087286,C;S;V;F,,0x00c000,-37.9,1.51e-7
1664087287,C;S;V;F,13.8,0x00c000,-37.7,0.00e-0
1664087288,C;S;V;F,13.8,0x00c000,,0.00e-0
1664087289,C;S;V;F,14.0,0x00c000,-37.6,0.00e-0
1664087290,C;S;V;F,13.9,0x00c000,-37.5,0.00e-0
1664087291,C;S;V;F,13.8,0x00c000,-37.8,0.00e-0
1664087292,C;S;V;F,13.8,0x00c000,-37.6,0.00e-0
1664087293,C;S;V;F,13.7,0x00c000,-37.9,0.00e-0
1664087294,C;S;V;F,13.8,0x00c000,-37.6,0.00e-0
1664087295,C;S;V;F,14.1,0x00c000,-37.2,0.00e-0
1664087296,C;S;V;F,14.2,0x00c000,-37.1,0.00e-0
1664087297,C;S;V;F,14.6,0x00c000,-36.7,0.00e-0
1664087298,C;S;V;F,15.0,0x00c000,-36.4,
1664087299,C;S;V;F,15.1,0x00c000,-36.4,0.00e-0
1664087300,,14.8,0x00c000,-36.4,0.00e-0
1664087301,C;S;V;F,14.9,0x00c000,-36.8,0.00e-0
1664087302,C;S;V;F,14.7,0x00c000,-36.9,0.00e-0
1664087303,C;S;V;F,14.5,0x00c000,-36.9,0.00e-0
1664087304,C;S;V;F,14.5,0x00c000,-37.2,0.00e-0
1664087305,C;S;V;F,,0x00c000,-37.3,0.00e-0
1664087306,C;S;V;F,14.2,0x00c000,,0.00e-0
1664087307,C;S;V;F,14.0,0x00c000,-37.5,0.00e-0
1664087308,C;S;V;F,14.0,0x00c000,-37.4,0.00e-0
1664087309,C;S;V;F,14.0,0x00c000,-37.1,0.00e-0
1664087310,C;S;V;F,14.3,0x00c000,-37.5,0.00e-0
1664087311,C;S;V;F,14.2,0x00c000,-37.3,0.00e-0
1664087312,C;S;V;F,14.3,0x00c000,-37.2,0.00e-0
1664087315,C;S;V;F,14.4,0x00c000,-36.7,0.00e-0
1664087316,C;S;V;F,15.1,0x00c000,-36.4,0.00e-0
1664087317,C;S;V;F,15.3,0x00c000,-36.0,0.00e-0
1664087318,C;S;V;F,15.1,0x00c000,-36.3,0.00e-0
1664087319,C;S;V;F,15.3,0x00c000,-36.0,0.00e-0
1664087320,C;S;V;F,15.5,0x00c000,-35.9,0.00e-0
1664087321,C;S;V;F,15.4,0x00c000,-35.9,
1664087322,,15.5,0x00c000,-36.0,0.00e-0
1664087323,C;S;V;F,15.2,0x00c000,-36.3,0.00e-0
1664087324,C;S;V;F,15.1,0x00c000,-36.5,0.00e-0
1664087325,C;S;V;F,,0x00c000,-36.5,0.00e-0
1664087326,C;S;V;F,14.7,0x00c000,-36.7,0.00e-0
1664087327,C;S;V;F,15.0,0x00c000,-36.5,0.00e-0
1664087328,C;S;V;F,15.0,0x00c000,,0.00e-0
1664087329,C;S;V;F,15.2,0x00c000,-36.5,0.00e-0
1664087330,C;S;V;F,14.9,0x00c000,-36.4,0.00e-0
1664087331,C;S;V;F,15.1,0x00c000,-36.2,0.00e-0
1664087332,C;S;V;F,15.3,0x00c000,-36.0,0.00e-0
1664087333,C;S;V;F,15.0,0x00c000,-36.3,0.00e-0
1664087334,C;S;V;F,15.0,0x00c000,-36.4,0.00e-0
1664087335,C;S;V;F,15.1,0x00c000,-36.3,0.00e-0
1664087336,C;S;V;F,14.8,0x00c000,-36.4,
1664087337,,15.3,0x00c000,-36.3,0.00e-0
1664087338,C;S;V;F,15.1,0x00c000,-36.4,0.00e-0
1664087339,C;S;V;F,15.1,0x00c000,-36.3,0.00e-0
1664087340,C;S;V;F,15.3,0x00c000,-36.2,0.00e-0
1664087341,C;S;V;F,,0x00c000,-36.2,0.00e-0
1664087342,C;S;V;F,15.2,0x00c000,,0.00e-0
1664087343,C;S;V;F,15.4,0x00c000,-36.2,0.00e-0
1664087344,C;S;V;F,15.3,0x00c000,-36.0,0.00e-0
1664087345,C;S;V;F,15.4,0x00c000,-36.3,0.00e-0
1664087346,C;S;V;F,15.3,0x00c000,-36.1,0.00e-0
1664087347,C;S;V;F,15.2,0x00c000,-36.4,0.00e-0
1664087348,C;S;V;F,14.9,0x00c000,-36.8,0.00e-0
1664087349,C;S;V;F,14.6,0x00c000,-36.9,0.00e-0
1664087350,C;S;V;F,14.6,0x00c000,-36.8,0.00e-0
1664087351,C;S;V;F,14.8,0x00c000,-36.4,0.00e-0
1664087352,,14.8,0x00c000,-36.7,
1664087353,C;S;V;F,15.0,0x00c000,-36.5,0.00e-0
1664087354,C;S;V;F,14.8,0x00c000,-36.6,0.00e-0
1664087355,C;S;V;F,,0x00c000,-36.3,0.00e-0
1664087356,C;S;V;F,15.0,0x00c000,,0.00e-0
1664087357,C;S;V;F,15.0,0x00c000,-36.3,0.00e-0
1664087358,C;S;V;F,14.8,0x00c000,-36.4,0.00e-0
1664087359,C;S;V;F,14.9,0x00c000,-36.4,0.00e-0
1664087360,C;S;V;F,14.8,0x00c000,-36.5,0.00e-0
1664087361,C;S;V;F,14.5,0x00c000,-36.8,0.00e-0
1664087362,C;S;V;F,14.6,0x00c000,-37.0,0.00e-0
1664087363,C;S;V;F,14.7,0x00c000,-36.6,0.00e-0
1664087364,C;S;V;F,14.5,0x00c000,-37.1,0.00e-0
1664087365,C;S;V;F,14.3,0x00c000,-36.8,
1664087366,,14.3,0x00c000,-36.8,0.00e-0
1664087367,C;S;V;F,14.7,0x00c000,-36.7,0.00e-0
1664087368,C;S;V;F,14.7,0x00c000,-36.6,0.00e-0
1664087369,C;S;V;F,,0x00c000,-36.6,0.00e-0
1664087370,C;S;V;F,14.6,0x00c000,-36.4,0.00e-0
1664087371,C;S;V;F,14.8,0x00c000,,0.00e-0
1664087372,C;S;V;F,14.5,0x00c000,-37.1,0.00e-0
1664087373,C;S;V;F,14.3,0x00c000,-37.1,0.00e-0
1664087374,C;S;V;F,14.3,0x00c000,-36.9,0.00e-0
1664087375,C;S;V;F,14.6,0x00c000,-37.1,0.00e-0
1664087377,,,0x00c000,-37.6,
1664087378,C;S;V;F,13.9,0x00c000,-37.2,0.00e-0
1664087379,C;S;V;F,14.1,0x00c000,-37.3,0.00e-0
1664087380,C;S;V;F,14.1,0x00c000,,0.00e-0
1664087381,C;S;V;F,14.0,0x00c000,-37.4,0.00e-0
1664087382,C;S;V;F,14.2,0x00c000,-37.2,0.00e-0
1664087383,C;S;V;F,13.8,0x00c000,-37.5,0.00e-0
1664087384,C;S;V;F,14.4,0x00c000,-37.4,0.00e-0
1664087385,C;S;V;F,14.0,0x00c000,-37.2,0.00e-0
1664087386,C;S;V;F,14.0,0x00c000,-37.4,0.00e-0
1664087387,C;S;V;F,14.0,0x00c000,-37.6,0.00e-0
1664087388,C;S;V;F,13.7,0x00c000,-37.6,0.00e-0
1664087389,C;S;V;F,13.5,0x00c000,-38.3,
1664087390,C;S;V;F,13.1,0x00c000,-38.2,1.51e-7
1664087391,,13.1,0x00c000,-38.1,1.51e-7
1664087392,C;S;V;F,13.5,0x00c000,-37.9,1.51e-7
1664087393,C;S;V;F,,0x00c000,-38.0,0.00e-0
1664087394,C;S;V;F,13.4,0x00c000,-38.0,0.00e-0
1664087395,C;S;V;F,13.5,0x00c000,,0.00e-0
1664087396,C;S;V;F,13.3,0x00c000,-37.9,0.00e-0
1664087397,C;S;V;F,13.5,0x00c000,-37.7,0.00e-0
1664087398,C;S;V;F,13.6,0x00c000,-37.6,0.00e-0
1664087399,C;S;V;F,13.3,0x00c000,-38.1,0.00e-0
1664087400,C;S;V;F,12.8,0x00c000,-38.4,4.54e-7
1664087404,C;S;V;F,13.3,0x00c000,-38.1,1.51e-7
1664087405,C;S;V;F,12.6,0x00c000,-38.7,1.51e-7
1664087406,C;S;V;F,12.8,0x00c000,-38.5,7.57e-7
1664087407,C;S;V;F,12.6,0x00c000,-38.4,4.54e-7
1664087408,C;S;V;F,13.0,0x00c000,-38.2,4.54e-7
1664087409,C;S;V;F,13.3,0x00c000,-37.8,3.03e-7
1664087410,C;S;V;F,13.1,0x00c000,-38.1,
1664087411,,12.9,0x00c000,-38.1,0.00e-0
1664087412,C;S;V;F,13.0,0x00c000,-38.1,1.51e-7
1664087413,C;S;V;F,13.0,0x00c000,-38.2,1.51e-7
1664087414,C;S;V;F,13.2,0x00c000,-38.3,1.51e-7
1664087415,C;S;V;F,,0x00c000,-38.9,1.51e-7
1664087416,C;S;V;F,12.3,0x00c000,-38.2,1.36e-6